Regional Weather Roundup
Issued by NWS Goodland, KS

Home | Current Version | Previous Version | Text Only | Print | Product List | Glossary On
Versions: 1 2 3 4 5 6 7 8 9 10 11 12 13 14 15 16 17 18 19 20 21 22 23 24 25 26 27 28 29 30 31 32 33 34 35 36 37 38 39 40 41 42 43 44 45 46 47 48 49 50
000
ASUS43 KGLD 100008
RWRGLD

GOODLAND FORECAST AREA HOURLY WEATHER ROUNDUP
NATIONAL WEATHER SERVICE GOODLAND KS
500 PM MST FRI DEC 09 2016

...OFFICIAL OBSERVATIONS...

CITY           SKY/WX    TMP DP  RH WIND       PRES   REMARKS
GOODLAND KS    CLEAR     27  21  78 CALM      30.20R
HILL CITY KS   CLEAR     26  13  57 SE7       30.33R
IMPERIAL NEB   CLOUDY    26  18  71 N6        30.24R
MCCOOK NEB     CLEAR     21  13  71 E7        30.29R
AKRON CO       CLOUDY    23  16  74 SE10      30.14S WCI  12
BURLINGTON CO  CLOUDY    28  17  63 SE8       30.18R
LIMON CO       CLOUDY    35  25  66 E13       30.10F
$$

...UNOFFICIAL OBSERVATIONS...

CITY           SKY/WX    TMP DP  RH WIND       PRES   REMARKS
COLBY KS       CLEAR     27  25  93 SE6       30.25R
LENORA KS        N/A     25  32 100 MISG        N/A
NORTON KS      CLEAR     21  10  63 E5        30.30S
SHARON SPRINGS   N/A     30  23  74 SE9         N/A
TRENTON NEB      N/A     24  32 100 E6          N/A
KIT CARSON CO    N/A     29  13  50 CALM        N/A
YUMA CO        MOCLDY    19  14  79 SE3       30.18S
$$



USA.gov is the U.S. government's official web portal to all federal, state and local government web resources and services.